Location: Unspecified
(0.0000°N, 0.0000°E)
Time: 15:49:05
(UTC+00:00)

Vanguard 3 - Pass Details

Date: 15 December 2017
Orbit: 508 x 3264 km, 33.3° (Epoch: 16 July)

Event Time Altitude Azimuth Distance (km) Brightness Sun altitude
Rises 03:06:57 0° 225° (SW) 7,105 11.8 -38.0°
Reaches altitude 10° 03:14:08 10° 210° (SSW) 6,203 11.6 -36.4°
Maximum altitude 03:27:13 21° 168° (SSE) 5,110 11.5 -33.5°
Drops below altitude 10° 03:38:29 10° 126° (SE) 5,331 12.2 -31.0°
Sets 03:43:48 0° 110° (ESE) 5,895 12.7 -29.9°
